Location: Agadir Mansour Mhndou
(31.2424°N, 8.7730°W)
Time: 20:04:29
(UTC+00:00)

Cosmos 1048 Rocket - Visible Passes

Search period start: 17 May 2022 00:00
Search period end: 27 May 2022 00:00
Orbit: 743 x 791 km, 74.0° (Epoch: 17 May)

Date Brightness Start Highest point End Pass type
(mag) Time Alt. Az. Time Alt. Az. Time Alt. Az.
17 May 6.6 01:44:35 10° NNE 01:47:02 13° ENE 01:48:42 12° E visible
17 May 4.1 03:24:22 10° NNW 03:28:53 53° WNW 03:28:53 53° WNW visible
18 May 4.3 02:46:57 10° NNW 02:51:17 61° N 02:51:17 61° N visible
19 May 5.2 02:09:52 10° N 02:13:50 37° NE 02:13:50 37° NE visible
19 May 6.0 03:53:10 10° WNW 03:54:01 13° WNW 03:54:01 13° WNW visible
20 May 6.0 01:33:12 10° NNE 01:36:29 22° NE 01:36:29 22° NE visible
20 May 5.6 03:14:43 10° NW 03:16:41 20° NW 03:16:41 20° NW visible
21 May 6.6 00:57:28 10° NE 00:59:15 12° ENE 00:59:15 12° ENE visible
21 May 5.4 02:36:57 10° NNW 02:39:26 28° NW 02:39:26 28° NW visible
22 May 5.5 01:59:34 10° NNW 02:02:16 31° N 02:02:16 31° N visible
23 May 5.9 01:22:31 10° N 01:25:09 26° NNE 01:25:09 26° NNE visible
24 May 6.3 00:45:54 10° NNE 00:48:05 18° NE 00:48:05 18° NE visible
24 May 6.2 02:27:16 10° NW 02:28:18 15° NW 02:28:18 15° NW visible
25 May 6.7 00:10:24 10° NE 00:11:04 11° NE 00:11:04 11° NE visible
25 May 6.0 01:49:32 10° NNW 01:51:17 21° NNW 01:51:17 21° NNW visible
26 May 5.9 01:12:11 10° N 01:14:19 25° N 01:14:19 25° N visible
